Location: ??? ?????
(30.6482°N, 60.5850°E)
Time: 04:20:49
(UTC+00:00)

Cosmos 1140 Rocket - Pass Details

Date: 09 April 2020
Orbit: 745 x 767 km, 74.1° (Epoch: 05 June)

Event Time Altitude Azimuth Distance (km) Brightness Sun altitude
Rises 14:59:03 0° 180° (S) 3,205 6.6 -8.6°
Reaches altitude 10° 15:01:29 10° 175° (S) 2,280 5.8 -9.1°
Maximum altitude 15:06:26 47° 102° (ESE) 989 3.7 -10.2°
Drops below altitude 10° 15:11:22 10° 29° (NNE) 2,277 5.8 -11.2°
Sets 15:13:48 0° 24° (NNE) 3,201 6.6 -11.7°
